Location: Springfield
(37.2150°N, 93.2980°W)
Time: 12:39:13
(UTC-05:00)

Cosmos 1295 Rocket - Pass Details

Date: 19 April 2018
Orbit: 943 x 995 km, 82.9° (Epoch: 26 May)

Event Time Altitude Azimuth Distance (km) Brightness Sun altitude
Rises 21:18:58 0° 184° (S) 3,693 7.3 -16.8°
Reaches altitude 10° 21:21:28 10° 184° (S) 2,749 6.6 -17.3°
Maximum altitude 21:27:49 89° 94° (E) 999 4.5 -18.4°
Drops below altitude 10° 21:34:10 10° 7° (N) 2,757 7.2 -19.4°
Sets 21:36:41 0° 7° (N) 3,704 7.9 -19.9°
